Weather History for KSEG - May, 2013

Change the Weather History Date:

Sunday, May 26, 2013

  Actual Average (KIPT) Record (KIPT)
Temperature  
Mean Temperature 56 °F 63 °F  
Max Temperature 70 °F 74 °F 93 °F (1914)
Min Temperature 43 °F 51 °F 35 °F (1925)
Degree Days  
Heating Degree Days 8 4  
Month to date heating degree days 185  
Since 1 July heating degree days 5940  
Cooling Degree Days 0 2  
Month to date cooling degree days 26  
Year to date cooling degree days 31  
Growing Degree Days 6 (Base 50)    
Moisture  
Dew Point 36 °F    
Average Humidity 50    
Maximum Humidity 85    
Minimum Humidity 25    
Precipitation  
Precipitation 0.00 in 0.12 in 1.52 in (1943)
Month to date precipitation 3.06  
Year to date precipitation 14.31  
Snow  
Snow 0.00 in 0.00 in 0.00 in (2002)
Month to date snowfall 0.0  
Since 1 July snowfall 36.0  
Snow Depth -    
Sea Level Pressure  
Sea Level Pressure 30.15 in    
Wind  
Wind Speed 6 mph (NW)    
Max Wind Speed 15 mph    
Max Gust Speed 26 mph    
Visibility 10 miles    
Events      
T = Trace of Precipitation, MM = Missing Value Source: NWS Daily Summary

Daily Weather History Graph

Daily Weather History Graph

Search for Another Location

Airport or City:

Trip Planner

Search our weather history database for the weather conditions in past years. The results will help you decide how hot, cold, wet, or windy it might be!

Date:

Astronomy

May. 26, 2013 Rise Set
Actual Time 5:41 AM EDT 8:28 PM EDT
Civil Twilight 5:09 AM EDT 9:00 PM EDT
Nautical Twilight 4:28 AM EDT 9:41 PM EDT
Astronomical Twilight 3:42 AM EDT 10:27 PM EDT
Moon 10:13 PM EDT (5/26) 7:08 AM EDT (5/26)
Length of Visible Light 15h 51m
Length of Day
14h 47m
Waning Gibbous, 97% of the Moon is Illuminated
May 26
Waning Gibbous
May 31
Last Quarter
Jun 8
New
Jun 16
First Quarter
Jun 23
Full

Hourly Weather History & Observations

Time (EDT) Temp. Dew Point Humidity Pressure Visibility Wind Dir Wind Speed Gust Speed Precip Events Conditions
12:53 AM 50.0 °F 33.1 °F 52% 30.13 in 10.0 mi WNW 8.1 mph - N/A   Clear
1:53 AM 50.0 °F 33.1 °F 52% 30.12 in 10.0 mi Variable 6.9 mph - N/A   Clear
2:53 AM 48.0 °F 34.0 °F 58% 30.12 in 10.0 mi WNW 5.8 mph - N/A   Clear
3:53 AM 46.0 °F 34.0 °F 63% 30.12 in 10.0 mi Calm Calm - N/A   Clear
4:53 AM 46.0 °F 34.0 °F 63% 30.13 in 10.0 mi Calm Calm - N/A   Clear
5:53 AM 43.0 °F 35.1 °F 74% 30.15 in 10.0 mi Calm Calm - N/A   Clear
6:53 AM 48.0 °F 37.0 °F 66% 30.17 in 10.0 mi Variable 3.5 mph - N/A   Clear
7:53 AM 52.0 °F 36.0 °F 54% 30.17 in 10.0 mi Calm Calm - N/A   Clear
8:53 AM 54.0 °F 36.0 °F 51% 30.18 in 10.0 mi Variable 5.8 mph - N/A   Clear
9:53 AM 57.9 °F 36.0 °F 44% 30.17 in 10.0 mi NW 10.4 mph 18.4 mph N/A   Clear
10:53 AM 59.0 °F 36.0 °F 42% 30.16 in 10.0 mi NW 11.5 mph 26.5 mph N/A   Clear
11:53 AM 62.1 °F 39.0 °F 43% 30.16 in 10.0 mi NW 5.8 mph 20.7 mph N/A   Clear
12:53 PM 64.0 °F 36.0 °F 35% 30.14 in 10.0 mi West 11.5 mph 19.6 mph N/A   Clear
1:53 PM 66.0 °F 35.1 °F 32% 30.13 in 10.0 mi WNW 11.5 mph 21.9 mph N/A   Clear
2:53 PM 66.9 °F 34.0 °F 30% 30.13 in 10.0 mi NW 15.0 mph 25.3 mph N/A   Clear
3:53 PM 69.1 °F 35.1 °F 29% 30.12 in 10.0 mi NNW 10.4 mph 20.7 mph N/A   Clear
4:53 PM 70.0 °F 35.1 °F 28% 30.11 in 10.0 mi NW 12.7 mph 19.6 mph N/A   Clear
5:53 PM 69.1 °F 32.0 °F 25% 30.11 in 10.0 mi NNW 12.7 mph - N/A   Clear
6:53 PM 68.0 °F 33.1 °F 27% 30.12 in 10.0 mi NNW 10.4 mph 18.4 mph N/A   Clear
7:53 PM 64.0 °F 32.0 °F 30% 30.14 in 10.0 mi North 8.1 mph - N/A   Clear
8:53 PM 53.1 °F 43.0 °F 69% 30.17 in 10.0 mi NNW 4.6 mph - N/A   Clear
9:53 PM 48.9 °F 43.0 °F 80% 30.20 in 10.0 mi NW 4.6 mph - N/A   Clear
10:53 PM 48.0 °F 39.0 °F 71% 30.22 in 10.0 mi NW 3.5 mph - N/A   Clear
11:53 PM 44.1 °F 39.9 °F 85% 30.24 in 10.0 mi Calm Calm - N/A   Clear